#timestamp,LO_Frequency,Hit,StdDev 
1566594015.3,286047001.2,N
1566594035.1,286047002.0,N
1566594055.9,286047000.8,N
1566594075.7,286046999.6,N
1566594095.6,286046998.5,N
1566594115.4,286046999.3,N
1566594135.2,286046998.2,N
1566594155.1,286047002.1,N
1566594156.0,286047002.1,N
1566594175.8,286047004.3,Y
1566594195.7,286047001.9,P
1566594215.5,286047000.0,N
1566594235.3,286047001.5,N
1566594255.2,286047004.2,Y
1566594275.0,286047002.3,P
1566594275.9,286047002.3,P
1566594295.7,286047004.1,P
1566594315.6,286047000.9,N
1566594335.4,286046998.8,N
1566594355.3,286046998.1,N
1566594375.1,286047002.1,N
1566594376.0,286047002.1,N
1566594395.8,286047004.3,N
1566594415.7,286047005.8,Y
1566594435.5,286047002.2,P
1566594455.4,286047002.4,P
1566594475.2,286046998.3,P
1566594495.0,286047001.0,N
1566594495.9,286047001.0,N
1566594515.8,286046998.9,N
1566594535.6,286046998.8,N
1566594555.4,286046998.6,N
1566594575.3,286046997.3,N
1566594595.1,286046998.9,N
1566594615.9,286046999.3,N
1566594635.7,286046998.2,N
1566594655.5,286047001.1,N
1566594675.4,286047000.7,N
1566594695.2,286047000.3,N
1566594715.0,286047002.2,N
1566594715.9,286047002.2,N
1566594735.8,286047001.2,N
1566594755.6,286047000.7,N
1566594775.5,286046999.7,N
1566594795.3,286047002.7,N
1566594815.1,286047001.1,N
1566594835.9,286046999.7,N
1566594855.7,286047002.7,N
1566594875.5,286047000.8,N
1566594895.4,286046998.2,N
1566594915.2,286046999.3,N
1566594935.1,286046997.6,N
1566594936.0,286046997.6,N
1566594955.8,286046997.3,N
1566594975.6,286046997.2,N
1566594995.5,286046997.4,N
1566595015.3,286046997.8,N
1566595035.2,286046996.7,N
1566595055.9,286046997.4,N
1566595075.7,286046996.7,N
1566595095.6,286046994.9,N
1566595115.4,286046995.5,N
1566595135.2,286046999.0,N
1566595155.1,286046998.4,N
1566595156.0,286046998.4,N
1566595175.8,286046996.8,N
1566595195.7,286046995.0,N
1566595215.5,286046993.9,N
1566595235.3,286046997.7,N
1566595255.2,286046998.7,N
1566595275.9,286047001.2,N
1566595295.7,286046996.8,N
1566595315.6,286046998.6,N
1566595335.4,286047000.7,N
1566595355.2,286046999.0,N
1566595375.1,286046998.7,N
1566595376.0,286046998.7,N
1566595395.8,286046998.7,N
1566595415.7,286046998.9,N
1566595435.5,286046999.2,N
1566595455.3,286046998.5,N
1566595475.2,286046998.9,N
1566595495.0,286046998.9,N
1566595495.9,286046998.9,N
1566595515.8,286046997.2,N
1566595535.6,286046997.5,N
1566595555.4,286046996.9,N
1566595575.3,286046999.2,N
1566595595.1,286046998.3,N
1566595615.8,286047000.9,N
1566595635.7,286046999.1,N
1566595655.5,286046997.1,N
1566595675.4,286046997.8,N
1566595695.2,286046999.4,N
1566595715.0,286046998.5,N
1566595715.9,286046998.5,N
1566595735.8,286046995.0,Y
1566595755.6,286046998.9,P
1566595775.4,286046997.5,P
1566595795.3,286046997.8,P
1566595815.1,286046996.8,Y
1566595835.9,286047000.8,P
1566595855.7,286047000.7,N
1566595875.5,286047000.4,N
1566595895.4,286047001.5,N
1566595915.2,286047000.0,N
1566595965.1,286047000.8,E
1566595975.9,286047000.3,N
1566595995.7,286047000.0,P
1566596015.6,286046999.9,N
1566596035.4,286047000.2,N
1566596055.2,286046998.3,Y
1566596075.1,286046998.1,P
1566596076.0,286046998.1,N
1566596095.8,286046999.3,N
1566596115.7,286046998.1,N
1566596135.5,286047000.6,N
1566596155.3,286046998.3,N
1566596175.2,286046999.6,N
1566596195.0,286046998.6,N
1566596195.9,286046998.6,N
1566596215.7,286047000.0,N
1566596235.6,286047000.0,N
1566596255.4,286046999.1,N
1566596275.3,286046999.3,N
1566596295.1,286046998.9,N
1566596296.0,286046998.9,N
1566596315.8,286046998.9,N
1566596335.7,286046998.1,N
1566596355.5,286046998.7,N
1566596375.3,286046995.4,Y
1566596395.2,286046999.2,P
1566596415.0,286046998.4,P
1566596415.9,286046998.4,P
1566596435.8,286046999.5,N
1566596455.6,286046997.0,Y
1566596475.4,286046998.1,P
1566596495.3,286046998.3,P
1566596515.1,286046998.7,P
1566596535.9,286046999.2,N
1566596555.7,286046998.3,Y
1566596575.5,286047000.6,P
1566596595.4,286047000.2,N
1566596615.2,286047002.2,N
1566596635.0,286047004.4,Y
1566596636.0,286047004.4,P
1566596655.8,286047003.0,N
1566596675.6,286047001.9,N
1566596695.5,286047000.8,N
1566596715.3,286047004.2,N
1566596735.1,286047000.3,N
1566596755.9,286047000.5,N
1566596775.7,286047000.0,N
1566596795.5,286046996.6,N
1566596815.4,286046997.0,N
1566596835.2,286046998.5,N
1566596855.1,286046999.1,N
1566596856.0,286046999.1,N
1566596875.8,286046999.2,N
1566596895.6,286046998.6,N
1566596915.5,286047002.6,N
1566596935.3,286047002.0,N
1566596955.1,286047001.8,N
1566596975.9,286047005.4,N
1566596995.7,286047004.2,N
1566597015.6,286047003.8,N
1566597035.4,286047004.4,N
1566597055.2,286047003.9,N
1566597075.1,286047002.8,N
1566597076.0,286047002.8,N
1566597095.8,286047000.6,N
1566597115.6,286046999.8,N
1566597135.5,286047003.4,N
1566597155.3,286047001.3,N
1566597175.2,286047002.1,N
1566597195.9,286047003.6,N
1566597215.7,286047001.5,N
1566597235.6,286047000.9,N
1566597255.4,286047001.2,N
1566597275.3,286046998.6,N
1566597295.1,286047000.3,N
1566597296.0,286047000.3,N
1566597315.8,286047002.6,N
1566597335.7,286047001.7,N
1566597355.5,286047003.6,N
1566597375.3,286047005.7,N
1566597395.2,286047005.8,N
1566597415.0,286047007.6,Y
1566597415.9,286047007.6,P
1566597435.8,286047003.4,N
1566597455.6,286047003.4,N
1566597475.4,286047003.3,N
1566597495.3,286047003.3,N
1566597515.1,286047003.1,N
1566597535.9,286047001.9,N
1566597555.7,286047004.0,N
1566597575.5,286047003.5,N
1566597595.4,286047001.7,N
